Погода в Родниках

Россия / Ивановская область     57°06′25″N   41°44′00″E
темп.,
°C
ветер,
м/с
пор.,
м/с
влажн.,
%
обл.,
%
осадки,
мм/ч
давл.,
гПа
погр.,
м
15 августа, пн
пн1500:00+20ююв226487 0.0 102218
03:00+19ююв1263100 0.0 102214
06:00+19ююв226595 0.0 102355
09:00+22юв235791 0.0 1023233
12:00+26ююв244051 0.0 10241471
15:00+28ююв333415 0.0 10232343
18:00+26вюв234851 0.0 1022133
21:00+21вюв2461100 0.0 102480
16 августа, вт
вт1600:00+20вюв246463 0.0 102487
03:00+18вюв227668 0.0 102532
06:00+18вюв2278100 0.0 102554
09:00+22в2364100 0.0 1025307
12:00+24юв3458100 0.0 1025630
15:00+27вюв234445 0.0 10241819
18:00+25в465060 0.0 1023360
21:00+21вюв376173 0.0 1024180
17 августа, ср
ср1700:00+17вюв35685 0.0 102475
03:00+15в34735 0.0 102359
06:00+16в36775 0.0 1024143
09:00+23вюв35554 0.0 1023548
12:00+26вюв45420 0.0 10221846
15:00+28вюв44360 0.0 10212221
18:00+25в36465 0.0 1021306
21:00+19вюв38655 0.0 1021134
18 августа, чт
чт1800:00+17вюв35675 0.0 102270
03:00+15в34725 0.0 102263
06:00+15в36745 0.0 1023130
09:00+23вюв46515 0.0 1023562
12:00+27вюв56394 0.0 10221788
15:00+28вюв57350 0.0 10222013
18:00+25в48420 0.0 1022562
21:00+19в39600 0.0 1023149
19 августа, пт
пт1900:00+17в38680 0.0 1024147
03:00+16в39742 0.0 1024168
06:00+17в4117267 0.0 1025247
09:00+23вюв51054100 0.0 1026613
12:00+26вюв5745100 0.0 10261129
15:00+28юв683688 0.0 10252702
18:00+21ююз2464100 0.0 1026216
21:00+19всв2371100 0.0 102650